Simultaneous Nadir Overpasses (SNOs) Predictions

Prediction of SNOs between AQUA and METOP-B Satellite Orbit:

Table of predicted SNOs for the next 14.0 days since TLE Epoch: 6/29/2020
Index Date (AQUA) Time (AQUA) Lat,Lon (AQUA) SZA (AQUA ) Date (METOP-B) Time (METOP-B) Lat,Lon (METOP-B) SZA (METOP-B ) Distance(km) Time Diff (sec)
1 06/30/2020 19:13:23 73.76,-113.94 50.70 06/30/2020 19:12:20 73.78,-113.98 50.73 2.41 63
2 06/30/2020 20:02:51 -73.87, 53.47 129.19 06/30/2020 20:03:01 -73.84, 53.48 129.22 3.46 10
3 06/30/2020 20:52:24 74.17,-139.59 51.15 06/30/2020 20:53:34 74.16,-138.41 51.08 36.00 70
4 07/03/2020 14:47:37 73.79, -47.56 50.95 07/03/2020 14:46:40 73.79, -47.54 50.96 0.87 57
5 07/03/2020 15:37:04 -73.84, 119.97 129.00 07/03/2020 15:37:21 -73.85, 119.92 128.99 1.80 17
6 07/03/2020 16:26:42 74.41, -73.70 51.63 07/03/2020 16:27:49 74.41, -71.34 51.53 70.44 67
7 07/06/2020 10:21:52 73.82, 18.81 51.26 07/06/2020 10:21:01 73.81, 18.90 51.25 3.07 51
8 07/06/2020 11:11:19 -73.87,-173.66 128.69 07/06/2020 11:11:42 -73.86,-173.64 128.70 1.07 23
9 07/09/2020 05:56:06 73.80, 85.29 51.56 07/09/2020 05:55:22 73.82, 85.33 51.58 1.90 44
10 07/09/2020 06:45:33 -73.85,-107.18 128.38 07/09/2020 06:46:03 -73.87,-107.21 128.37 2.28 30
11 07/12/2020 01:30:19 73.79, 151.76 51.93 07/12/2020 01:29:42 73.83, 151.76 51.97 3.82 37
12 07/12/2020 02:19:47 -73.89, -40.83 127.96 07/12/2020 02:20:23 -73.88, -40.78 127.98 2.02 36
